Location: Vihti�l�
(61.3833°N, 23.0667°E)
Time: 05:50:05
(UTC+00:00)

Cosmos 1242 Rocket - Pass Details

Date: 29 November 2020
Orbit: 447 x 485 km, 81.2° (Epoch: 22 January)

Event Time Altitude Azimuth Distance (km) Brightness Sun altitude
Exits shadow 04:42:21 13° 347° (NNW) 1,484 4.7 -15.8°
Maximum altitude 04:45:32 67° 69° (ENE) 530 2.9 -15.4°
Drops below altitude 10° 04:49:11 10° 153° (SSE) 1,670 5.9 -15.0°
Sets 04:51:18 0° 157° (SSE) 2,549 6.9 -14.7°
